K5BOU Weather Reports


time (UTC)temp
C
wind
direction
speed
KPH
gust
KPH
rain 1hr
cm
rain 24hr
cm
rain mn
cm
humidity
%
barometer
mb
20260506024709 25 158 4.8 9.7 0.00 0.00 0.00 96 1006.8
20260506024205 25 144 4.8 8.0 0.00 0.00 0.00 96 1006.5
20260506023702 25 169 3.2 8.0 0.00 0.00 0.00 96 1006.6
20260506023159 25 173 8.0 11.3 0.00 0.00 0.00 96 1006.3
20260506022656 25 193 4.8 11.3 0.00 0.00 0.00 96 1006.3
20260506022153 25 191 3.2 8.0 0.00 0.00 0.00 96 1006.1
20260506021652 25 170 4.8 8.0 0.00 0.00 0.00 96 1005.9
20260506021148 25 132 11.3 14.5 0.00 0.00 0.00 95 1005.9
20260506020645 25 169 1.6 9.7 0.00 0.00 0.00 95 1005.9
20260506020143 25 186 1.6 4.8 0.00 0.00 0.00 95 1006.0
20260506015640 25 174 4.8 8.0 0.00 0.00 0.00 95 1005.8
20260506015137 25 179 4.8 12.9 0.00 0.00 0.00 95 1005.7
20260506014635 25 142 3.2 3.2 0.00 0.00 0.00 94 1005.7
20260506014130 25 141 4.8 12.9 0.00 0.00 0.00 94 1005.5
20260506013629 25 161 8.0 9.7 0.00 0.00 0.00 94 1005.5
20260506013125 26 179 1.6 4.8 0.00 0.00 0.00 94 1005.2
20260506012622 26 140 8.0 11.3 0.00 0.00 0.00 93 1005.2
20260506012118 26 118 6.4 8.0 0.00 0.00 0.00 92 1005.1
20260506011616 26 118 6.4 8.0 0.00 0.00 0.00 92 1005.1
20260506011112 26 118 6.4 8.0 0.00 0.00 0.00 92 1005.0
20260506010606 26 164 8.0 9.7 0.00 0.00 0.00 92 1005.1
20260506005559 26 154 6.4 11.3 0.00 0.00 0.00 91 1005.1
20260506005055 26 190 4.8 8.0 0.00 0.00 0.00 91 1005.0
20260506004552 26 152 4.8 8.0 0.00 0.00 0.00 91 1005.0
20260506004049 26 199 6.4 8.0 0.00 0.00 0.00 90 1004.7
20260506003545 26 176 4.8 8.0 0.00 0.00 0.00 90 1004.6
20260506003042 26 145 4.8 9.7 0.00 0.00 0.00 89 1004.6
20260506002538 26 133 6.4 11.3 0.00 0.00 0.00 88 1004.7
20260506002034 26 201 8.0 9.7 0.00 0.00 0.00 88 1004.9
20260506001530 26 203 1.6 4.8 0.00 0.00 0.00 87 1004.6
20260506001028 26 169 8.0 9.7 0.00 0.00 0.00 87 1004.6
20260506000525 26 163 4.8 8.0 0.00 0.00 0.00 87 1004.6
20260506000023 26 171 11.3 14.5 0.00 0.00 0.00 86 1004.7
20260505235520 26 149 9.7 14.5 0.00 0.00 0.00 86 1004.9
20260505235017 26 175 8.0 9.7 0.00 0.00 0.00 86 1004.6
20260505234514 27 152 12.9 17.7 0.00 0.00 0.00 87 1004.4
20260505234011 27 150 6.4 8.0 0.00 0.00 0.00 87 1004.6
20260505233508 27 185 8.0 12.9 0.00 0.00 0.00 87 1004.6
20260505233005 27 163 6.4 9.7 0.00 0.00 0.00 87 1004.6
20260505232503 27 215 6.4 9.7 0.00 0.00 0.00 87 1004.5
20260505232000 27 153 11.3 12.9 0.00 0.00 0.00 87 1004.5
20260505231457 27 141 3.2 4.8 0.00 0.00 0.00 87 1004.8
20260505230956 27 141 3.2 4.8 0.00 0.00 0.00 87 1004.7
20260505230453 27 129 8.0 14.5 0.00 0.00 0.00 87 1004.7
20260505225949 27 151 12.9 17.7 0.00 0.00 0.00 86 1004.8
20260505225446 27 190 11.3 12.9 0.00 0.00 0.00 87 1004.6
20260505224942 27 134 12.9 16.1 0.00 0.00 0.00 86 1004.7
20260505224439 27 159 8.0 24.1 0.00 0.00 0.00 86 1004.9
20260505223937 27 149 8.0 11.3 0.00 0.00 0.00 87 1004.8
20260505223433 27 157 11.3 16.1 0.00 0.00 0.00 87 1005.0
20260505222930 27 156 11.3 14.5 0.00 0.00 0.00 87 1004.7
20260505222426 27 137 8.0 11.3 0.00 0.00 0.00 87 1004.7
20260505221922 28 180 9.7 12.9 0.00 0.00 0.00 87 1004.7
20260505221420 27 176 8.0 11.3 0.00 0.00 0.00 87 1004.8
20260505220917 27 156 4.8 8.0 0.00 0.00 0.00 87 1004.7
20260505220413 27 127 6.4 12.9 0.00 0.00 0.00 87 1005.0
20260505215911 27 190 4.8 8.0 0.00 0.00 0.00 87 1005.0
20260505215409 27 197 9.7 11.3 0.00 0.00 0.00 86 1005.1
20260505214907 28 155 11.3 16.1 0.00 0.00 0.00 86 1005.0
20260505214404 27 210 9.7 12.9 0.00 0.00 0.00 86 1004.9
20260505213901 28 185 8.0 14.5 0.00 0.00 0.00 86 1005.1
20260505213359 28 143 17.7 17.7 0.00 0.00 0.00 85 1005.4
20260505212855 28 147 4.8 4.8 0.00 0.00 0.00 86 1005.5
20260505212352 28 162 8.0 8.0 0.00 0.00 0.00 86 1005.5
20260505211848 27 140 11.3 14.5 0.00 0.00 0.00 86 1005.4
20260505211346 27 140 14.5 25.7 0.00 0.00 0.00 85 1005.4
20260505210842 27 220 9.7 14.5 0.00 0.00 0.00 86 1005.5
20260505210339 27 178 8.0 16.1 0.00 0.00 0.00 86 1005.7
20260505205836 27 145 4.8 9.7 0.00 0.00 0.00 87 1005.7
20260505205334 27 198 12.9 16.1 0.00 0.00 0.00 86 1005.8
20260505204831 27 208 8.0 11.3 0.00 0.00 0.00 86 1005.8
20260505204329 27 154 4.8 8.0 0.00 0.00 0.00 87 1006.0
20260505203826 27 178 11.3 20.9 0.00 0.00 0.00 87 1005.9
20260505203322 27 160 6.4 11.3 0.00 0.00 0.00 87 1006.0
20260505202818 27 151 6.4 17.7 0.00 0.00 0.00 87 1006.4
20260505202315 27 197 8.0 9.7 0.00 0.00 0.00 87 1006.2
20260505201811 27 197 8.0 9.7 0.00 0.00 0.00 87 1006.2
20260505201309 27 197 8.0 9.7 0.00 0.00 0.00 87 1006.4
20260505200807 27 197 8.0 9.7 0.00 0.00 0.00 87 1006.2
20260505200304 28 223 11.3 14.5 0.00 0.00 0.00 85 1006.2
20260505195759 28 212 8.0 12.9 0.00 0.00 0.00 85 1006.4
20260505195257 28 208 6.4 11.3 0.00 0.00 0.00 85 1006.4
20260505194754 28 202 8.0 12.9 0.00 0.00 0.00 86 1006.4
20260505194250 28 193 4.8 11.3 0.00 0.00 0.00 86 1006.4
20260505193746 27 188 9.7 12.9 0.00 0.00 0.00 86 1006.5
20260505193244 27 209 11.3 17.7 0.00 0.00 0.00 86 1006.5
20260505192742 27 126 6.4 12.9 0.00 0.00 0.00 87 1006.6
20260505192239 27 206 8.0 12.9 0.00 0.00 0.00 87 1006.7
20260505191737 27 200 3.2 16.1 0.00 0.00 0.00 87 1006.7
20260505191236 27 187 6.4 12.9 0.00 0.00 0.00 88 1006.5
20260505190731 27 197 4.8 9.7 0.00 0.00 0.00 88 1006.5
20260505190232 27 155 6.4 17.7 0.00 0.00 0.00 87 1006.7
20260505185728 27 195 4.8 9.7 0.00 0.00 0.00 88 1006.7
20260505185225 27 197 3.2 12.9 0.00 0.00 0.00 88 1006.8
20260505184721 27 203 9.7 14.5 0.00 0.00 0.00 88 1006.6
20260505184218 27 185 8.0 14.5 0.00 0.00 0.00 87 1006.6
20260505183715 27 187 11.3 20.9 0.00 0.00 0.00 87 1006.9
20260505183213 27 195 4.8 17.7 0.00 0.00 0.00 88 1006.8
20260505182708 27 148 11.3 20.9 0.00 0.00 0.00 89 1007.0
20260505182206 26 220 6.4 8.0 0.00 0.00 0.00 90 1006.8
20260505181702 26 224 6.4 9.7 0.00 0.00 0.00 89 1007.1
20260505181200 27 207 8.0 11.3 0.00 0.00 0.00 89 1007.1
20260505180655 27 192 8.0 9.7 0.00 0.00 0.00 89 1007.2
20260505180153 26 177 4.8 14.5 0.00 0.00 0.00 89 1007.2
20260505175649 26 213 4.8 12.9 0.00 0.00 0.00 89 1007.3
20260505175145 27 201 9.7 11.3 0.00 0.00 0.00 89 1007.1
20260505174642 26 151 4.8 12.9 0.00 0.00 0.00 89 1007.2
20260505174138 26 225 9.7 12.9 0.00 0.00 0.00 90 1007.3
20260505173635 26 204 4.8 8.0 0.00 0.00 0.00 90 1007.4
20260505173132 26 164 6.4 12.9 0.00 0.00 0.00 90 1007.3
20260505172630 26 188 8.0 12.9 0.00 0.00 0.00 91 1007.3
20260505172126 26 179 4.8 11.3 0.00 0.00 0.00 91 1007.3
20260505171621 26 208 8.0 11.3 0.00 0.00 0.00 91 1007.2
20260505171118 26 173 4.8 12.9 0.00 0.00 0.00 91 1007.2
20260505170615 26 197 3.2 8.0 0.00 0.00 0.00 92 1007.5
20260505170111 26 197 6.4 11.3 0.00 0.00 0.00 92 1007.3
20260505165606 26 212 3.2 16.1 0.00 0.00 0.00 92 1007.5
20260505165103 26 145 4.8 14.5 0.00 0.00 0.00 91 1007.7
20260505164558 26 154 8.0 11.3 0.00 0.00 0.00 91 1007.4
20260505164056 26 158 8.0 12.9 0.00 0.00 0.00 91 1007.5
20260505163555 26 206 4.8 8.0 0.00 0.00 0.00 91 1007.3
20260505163051 26 202 8.0 14.5 0.00 0.00 0.00 91 1007.4
20260505162549 26 145 6.4 11.3 0.00 0.00 0.00 91 1007.2
20260505162047 26 197 8.0 14.5 0.00 0.00 0.00 92 1007.3
20260505161544 26 212 6.4 9.7 0.00 0.00 0.00 93 1007.4
20260505161041 26 183 4.8 11.3 0.00 0.00 0.00 93 1007.4
20260505160539 25 218 12.9 20.9 0.00 0.00 0.00 93 1007.4
20260505153015 25 190 6.4 9.7 0.00 0.00 0.00 95 1007.1
20260505152512 25 193 3.2 11.3 0.00 0.00 0.00 95 1007.2
20260505152008 25 206 4.8 16.1 0.00 0.00 0.00 95 1007.1
20260505151503 25 193 8.0 12.9 0.00 0.00 0.00 95 1007.2
20260505151000 25 165 8.0 12.9 0.00 0.00 0.00 96 1007.3
20260505150457 25 212 8.0 12.9 0.00 0.00 0.00 96 1007.0
20260505140427 23 155 3.2 11.3 0.00 0.00 0.00 99 1006.9
20260505124840 22 168 1.6 4.8 0.00 0.00 0.00 99 1006.9
20260505124337 22 194 0.0 1.6 0.00 0.00 0.00 99 1006.9
20260505123833 22 191 1.6 4.8 0.00 0.00 0.00 99 1006.7
20260505123330 21 174 1.6 3.2 0.00 0.00 0.00 99 1006.7
20260505122826 21 179 0.0 1.6 0.00 0.00 0.00 99 1006.8
20260505122324 21 177 0.0 3.2 0.00 0.00 0.00 99 1006.8
20260505121820 21 171 0.0 3.2 0.00 0.00 0.00 99 1006.6
20260505121317 21 181 0.0 3.2 0.00 0.00 0.00 99 1006.7
20260505120813 21 177 0.0 3.2 0.00 0.00 0.00 99 1006.6
20260505120309 21 172 0.0 1.6 0.00 0.00 0.00 99 1006.2
20260505115808 21 151 3.2 3.2 0.00 0.00 0.00 99 1006.3
20260505115306 21 142 3.2 4.8 0.00 0.00 0.00 99 1006.3
20260505114803 21 175 0.0 3.2 0.00 0.00 0.00 99 1006.4
20260505114300 21 180 1.6 3.2 0.00 0.00 0.00 99 1006.6
20260505113756 21 174 0.0 1.6 0.00 0.00 0.00 99 1006.7
20260505113253 21 191 0.0 3.2 0.00 0.00 0.00 99 1006.5
20260505112748 21 159 4.8 4.8 0.00 0.00 0.00 99 1006.5
20260505112246 21 227 1.6 9.7 0.00 0.00 0.00 99 1006.4
20260505111741 21 181 1.6 4.8 0.00 0.00 0.00 99 1006.2
20260505111237 21 176 0.0 3.2 0.00 0.00 0.00 99 1006.4
20260505110733 21 191 3.2 3.2 0.00 0.00 0.00 99 1006.3
20260505110231 21 170 0.0 1.6 0.00 0.00 0.00 99 1006.4
20260505102207 20 188 0.0 0.0 0.00 0.00 0.00 99 1006.6
20260505101705 20 184 0.0 0.0 0.00 0.00 0.00 99 1006.5
20260505101201 20 180 0.0 0.0 0.00 0.00 0.00 99 1006.5
20260505100657 20 180 0.0 1.6 0.00 0.00 0.00 99 1006.5
20260505100154 20 178 0.0 1.6 0.00 0.00 0.00 99 1006.5
20260505095650 20 183 0.0 1.6 0.00 0.00 0.00 99 1006.7
20260505095148 20 181 0.0 3.2 0.00 0.00 0.00 99 1006.7
20260505094643 20 167 0.0 1.6 0.00 0.00 0.00 99 1006.7
20260505094140 20 177 0.0 3.2 0.00 0.00 0.00 99 1006.6
20260505093636 20 165 0.0 0.0 0.00 0.00 0.00 99 1006.7
20260505093134 20 167 0.0 0.0 0.00 0.00 0.00 99 1006.6
20260505092630 20 179 0.0 3.2 0.00 0.00 0.00 99 1006.8
20260505092129 20 171 1.6 3.2 0.00 0.00 0.00 99 1006.9
20260505091625 20 175 1.6 1.6 0.00 0.00 0.00 99 1006.8
20260505091124 20 175 0.0 1.6 0.00 0.00 0.00 99 1006.8
20260505090621 21 186 0.0 1.6 0.00 0.00 0.00 99 1007.0
20260505090119 21 181 1.6 4.8 0.00 0.00 0.00 99 1006.9
20260505085616 21 165 0.0 4.8 0.00 0.00 0.00 99 1006.9
20260505085115 21 168 0.0 3.2 0.00 0.00 0.00 99 1006.7
20260505084612 21 199 3.2 3.2 0.00 0.00 0.00 99 1007.1
20260505084110 21 179 0.0 1.6 0.00 0.00 0.00 99 1007.0
20260505083608 21 183 0.0 1.6 0.00 0.00 0.00 99 1007.0
20260505083104 21 169 0.0 3.2 0.00 0.00 0.00 99 1007.2
20260505082559 21 165 0.0 3.2 0.00 0.00 0.00 99 1007.2
20260505082057 21 195 0.0 3.2 0.00 0.00 0.00 99 1007.1
20260505081553 21 180 1.6 1.6 0.00 0.00 0.00 99 1007.2
20260505081050 21 191 0.0 3.2 0.00 0.00 0.00 99 1007.3
20260505080546 21 195 0.0 1.6 0.00 0.00 0.00 99 1007.2
20260505080043 21 178 1.6 3.2 0.00 0.00 0.00 99 1007.4
20260505075539 21 197 1.6 4.8 0.00 0.00 0.00 99 1007.4
20260505075036 21 175 0.0 8.0 0.00 0.00 0.00 99 1007.2
20260505074533 21 153 0.0 9.7 0.00 0.00 0.00 99 1007.2
20260505074030 21 194 0.0 8.0 0.00 0.00 0.00 99 1007.3
20260505073527 21 180 1.6 11.3 0.00 0.00 0.00 99 1007.3
20260505073026 21 184 3.2 8.0 0.00 0.00 0.00 99 1007.3
20260505072521 21 187 1.6 4.8 0.00 0.00 0.00 98 1007.3
20260505072018 21 196 4.8 8.0 0.00 0.00 0.00 98 1007.4
20260505071513 21 194 1.6 8.0 0.00 0.00 0.00 98 1007.6
20260505071012 21 202 3.2 9.7 0.00 0.00 0.00 98 1007.7
20260505070509 21 161 1.6 9.7 0.00 0.00 0.00 98 1007.8
20260505070005 21 207 3.2 8.0 0.00 0.00 0.00 98 1008.1
20260505065501 21 182 4.8 11.3 0.00 0.00 0.00 98 1008.0
20260505064957 21 163 4.8 4.8 0.00 0.00 0.00 97 1007.9
20260505064454 21 165 3.2 4.8 0.00 0.00 0.00 97 1008.1
20260505063953 21 153 3.2 11.3 0.00 0.00 0.00 97 1008.1
20260505063449 21 177 4.8 4.8 0.00 0.00 0.00 97 1008.0
20260505062945 21 188 1.6 11.3 0.00 0.00 0.00 97 1008.4
20260505062442 21 160 3.2 9.7 0.00 0.00 0.00 97 1008.1
20260505061939 21 168 6.4 8.0 0.00 0.00 0.00 96 1008.1
20260505061437 21 179 3.2 8.0 0.00 0.00 0.00 96 1008.3
20260505060935 21 157 4.8 8.0 0.00 0.00 0.00 96 1008.6
20260505060432 21 208 4.8 11.3 0.00 0.00 0.00 96 1008.4
20260505055927 21 196 3.2 8.0 0.00 0.00 0.00 96 1008.4
20260505055424 21 170 4.8 8.0 0.00 0.00 0.00 96 1008.5
20260505054921 21 158 3.2 8.0 0.00 0.00 0.00 96 1008.5
20260505054418 21 193 4.8 9.7 0.00 0.00 0.00 95 1008.4
20260505053916 21 180 6.4 9.7 0.00 0.00 0.00 95 1008.4
20260505053413 21 201 1.6 9.7 0.00 0.00 0.00 95 1008.7
20260505052910 21 161 4.8 8.0 0.00 0.00 0.00 95 1008.8
20260505052406 21 203 4.8 11.3 0.00 0.00 0.00 95 1009.2
20260505051904 21 191 0.0 8.0 0.00 0.00 0.00 95 1008.9
20260505051401 21 195 4.8 8.0 0.00 0.00 0.00 95 1009.0
20260505050859 21 200 1.6 8.0 0.00 0.00 0.00 95 1009.1
20260505050357 21 195 0.0 4.8 0.00 0.00 0.00 95 1008.8
20260505041325 21 181 0.0 4.8 0.00 0.00 0.00 92 1009.2
20260505040821 21 202 1.6 3.2 0.00 0.00 0.00 92 1009.3
20260505040319 21 132 4.8 9.7 0.00 0.00 0.00 92 1009.3
20260505035816 21 171 3.2 8.0 0.00 0.00 0.00 92 1008.9
20260505035311 21 155 4.8 8.0 0.00 0.00 0.00 92 1009.0
20260505034809 21 166 4.8 8.0 0.00 0.00 0.00 92 1009.2
20260505034305 21 193 4.8 9.7 0.00 0.00 0.00 91 1009.3
20260505033803 21 174 0.0 8.0 0.00 0.00 0.00 91 1009.2
20260505033259 22 155 4.8 8.0 0.00 0.00 0.00 91 1009.1
20260505032758 22 188 3.2 4.8 0.00 0.00 0.00 91 1009.1
20260505032253 22 160 4.8 11.3 0.00 0.00 0.00 91 1009.4
20260505031750 22 161 9.7 14.5 0.00 0.00 0.00 91 1009.2
20260505031247 22 164 4.8 9.7 0.00 0.00 0.00 90 1009.2
20260505030744 22 165 3.2 4.8 0.00 0.00 0.00 90 1009.0
20260505030240 22 176 3.2 4.8 0.00 0.00 0.00 90 1009.3
20260505025736 22 168 3.2 8.0 0.00 0.00 0.00 89 1009.2
20260505025234 22 171 4.8 9.7 0.00 0.00 0.00 89 1009.2